Location: Izdebno
(52.6670°N, 16.2170°E)
Time: 07:32:21
(UTC+02:00)

Vanguard 1 - Pass Details

Date: 25 February 2024
Orbit: 653 x 3825 km, 34.2° (Epoch: 22 April)

Event Time Altitude Azimuth Distance (km) Brightness Sun altitude
Rises 22:44:08 0° 259° (WSW) 6,407 14.4 -43.1°
Reaches altitude 10° 22:48:09 10° 252° (WSW) 5,754 14.0 -43.4°
Enters shadow 22:59:25 37° 220° (SW) 4,630 13.1 -44.2°
